Hourly Weather Nam Dinh

Today, 10 July, Friday

Time Temperature Precipitation Wind Pressure Humidity
00:00 +34°C° 0 mm 6 mps 749 mmHg 63%
01:00 +34°C° 0 mm 6 mps 749 mmHg 64%
02:00 +33°C° 0 mm 6 mps 749 mmHg 65%
03:00 +33°C° 0 mm 6 mps 749 mmHg 66%
04:00 +33°C° 0 mm 6 mps 749 mmHg 68%
05:00 +33°C° 0 mm 6 mps 749 mmHg 67%
06:00 +33°C° 0 mm 5 mps 750 mmHg 66%
07:00 +34°C° 0 mm 5 mps 750 mmHg 66%
08:00 +36°C° 0 mm 5 mps 750 mmHg 58%
09:00 +39°C° 0 mm 6 mps 750 mmHg 50%
10:00 +41°C° 0 mm 6 mps 750 mmHg 43%
11:00 +42°C° 0 mm 6 mps 750 mmHg 40%
12:00 +44°C° 0 mm 6 mps 749 mmHg 36%
13:00 +45°C° 0 mm 6 mps 750 mmHg 33%
14:00 +44°C° 0 mm 6 mps 749 mmHg 35%
15:00 +44°C° 0 mm 6 mps 748 mmHg 36%
16:00 +44°C° 0 mm 7 mps 748 mmHg 38%
17:00 +41°C° 0 mm 6 mps 748 mmHg 43%
18:00 +39°C° 0 mm 6 mps 748 mmHg 49%
19:00 +36°C° 0 mm 5 mps 749 mmHg 55%
20:00 +36°C° 0.1 mm 4 mps 749 mmHg 58%
21:00 +35°C° 0.1 mm 4 mps 750 mmHg 62%
22:00 +35°C° 0.1 mm 3 mps 750 mmHg 65%
23:00 +34°C° 0 mm 4 mps 750 mmHg 64%

Tomorrow, 11 July, Saturday

Time Temperature Precipitation Wind Pressure Humidity
00:00 +34°C° 0 mm 4 mps 750 mmHg 64%
01:00 +34°C° 0 mm 5 mps 750 mmHg 63%
02:00 +34°C° 0 mm 5 mps 750 mmHg 64%
03:00 +33°C° 0 mm 4 mps 750 mmHg 65%
04:00 +33°C° 0 mm 4 mps 749 mmHg 66%
05:00 +33°C° 0 mm 4 mps 750 mmHg 65%
06:00 +33°C° 0 mm 4 mps 750 mmHg 64%
07:00 +34°C° 0 mm 4 mps 750 mmHg 63%
08:00 +35°C° 0 mm 5 mps 750 mmHg 57%
09:00 +37°C° 0 mm 5 mps 750 mmHg 52%
10:00 +40°C° 0 mm 5 mps 750 mmHg 46%
11:00 +41°C° 0 mm 5 mps 750 mmHg 43%
12:00 +42°C° 0 mm 5 mps 750 mmHg 40%
13:00 +42°C° 0 mm 5 mps 750 mmHg 37%
14:00 +42°C° 0 mm 5 mps 749 mmHg 41%
15:00 +41°C° 0 mm 5 mps 749 mmHg 45%
16:00 +40°C° 0 mm 5 mps 748 mmHg 49%
17:00 +37°C° 0.2 mm 4 mps 749 mmHg 56%
18:00 +35°C° 0.2 mm 3 mps 749 mmHg 63%
19:00 +32°C° 0.2 mm 2 mps 750 mmHg 69%
20:00 +32°C° 0.3 mm 2 mps 751 mmHg 72%
21:00 +32°C° 0.3 mm 2 mps 751 mmHg 74%
22:00 +33°C° 0.3 mm 3 mps 752 mmHg 76%
23:00 +33°C° 0.1 mm 3 mps 752 mmHg 77%

Day after tomorrow, 12 July, Sunday

Time Temperature Precipitation Wind Pressure Humidity
00:00 +33°C° 0.1 mm 4 mps 752 mmHg 77%
01:00 +33°C° 0.1 mm 5 mps 752 mmHg 78%
02:00 +32°C° 0.1 mm 5 mps 752 mmHg 79%
03:00 +32°C° 0.1 mm 5 mps 751 mmHg 80%
04:00 +32°C° 0.1 mm 4 mps 751 mmHg 81%
05:00 +32°C° 0.2 mm 4 mps 751 mmHg 80%
06:00 +32°C° 0.2 mm 4 mps 752 mmHg 78%
07:00 +33°C° 0.2 mm 3 mps 752 mmHg 76%
08:00 +34°C° 0 mm 3 mps 752 mmHg 68%
09:00 +36°C° 0 mm 3 mps 752 mmHg 60%
10:00 +37°C° 0 mm 3 mps 752 mmHg 53%
11:00 +38°C° 0 mm 3 mps 752 mmHg 49%
12:00 +39°C° 0 mm 3 mps 751 mmHg 45%
13:00 +40°C° 0 mm 3 mps 751 mmHg 41%
14:00 +40°C° 0 mm 3 mps 751 mmHg 42%
15:00 +40°C° 0 mm 3 mps 750 mmHg 44%
16:00 +40°C° 0 mm 4 mps 750 mmHg 45%
17:00 +37°C° 0.3 mm 3 mps 750 mmHg 54%
18:00 +35°C° 0.3 mm 3 mps 751 mmHg 62%
19:00 +32°C° 0.3 mm 2 mps 751 mmHg 70%
20:00 +31°C° 1.6 mm 2 mps 752 mmHg 73%
21:00 +30°C° 1.6 mm 2 mps 753 mmHg 76%
22:00 +29°C° 1.6 mm 1 mps 754 mmHg 79%
23:00 +29°C° 0.7 mm 1 mps 754 mmHg 80%

13 July, Monday

Time Temperature Precipitation Wind Pressure Humidity
00:00 +29°C° 0.7 mm 1 mps 754 mmHg 80%
01:00 +29°C° 0.7 mm 1 mps 753 mmHg 80%
02:00 +29°C° 0 mm 1 mps 753 mmHg 81%
03:00 +29°C° 0 mm 2 mps 753 mmHg 81%
04:00 +29°C° 0 mm 2 mps 753 mmHg 82%
05:00 +30°C° 0.2 mm 2 mps 753 mmHg 80%
06:00 +30°C° 0.2 mm 2 mps 753 mmHg 78%
07:00 +31°C° 0.2 mm 2 mps 754 mmHg 77%
08:00 +34°C° 0 mm 2 mps 754 mmHg 70%
09:00 +35°C° 0 mm 2 mps 754 mmHg 64%
10:00 +37°C° 0 mm 2 mps 754 mmHg 57%
11:00 +38°C° 0.1 mm 2 mps 754 mmHg 53%
12:00 +39°C° 0.1 mm 2 mps 753 mmHg 48%
13:00 +41°C° 0.1 mm 1 mps 753 mmHg 44%
14:00 +40°C° 0 mm 2 mps 752 mmHg 47%
15:00 +39°C° 0 mm 3 mps 752 mmHg 50%
16:00 +38°C° 0 mm 4 mps 751 mmHg 53%
17:00 +36°C° 0 mm 4 mps 751 mmHg 59%
18:00 +35°C° 0 mm 4 mps 752 mmHg 65%
19:00 +33°C° 0 mm 4 mps 752 mmHg 72%
20:00 +33°C° 0 mm 4 mps 753 mmHg 74%
21:00 +33°C° 0 mm 3 mps 753 mmHg 77%
22:00 +31°C° 0 mm 3 mps 754 mmHg 80%
23:00 +31°C° 0.6 mm 3 mps 754 mmHg 80%

14 July, Tuesday

Time Temperature Precipitation Wind Pressure Humidity
00:00 +31°C° 0.6 mm 3 mps 754 mmHg 81%
01:00 +30°C° 0.6 mm 3 mps 754 mmHg 82%
02:00 +30°C° 0 mm 3 mps 753 mmHg 83%
03:00 +30°C° 0 mm 3 mps 753 mmHg 84%
04:00 +30°C° 0 mm 3 mps 753 mmHg 85%
05:00 +31°C° 0 mm 3 mps 754 mmHg 81%
06:00 +32°C° 0 mm 4 mps 754 mmHg 78%
07:00 +33°C° 0 mm 4 mps 754 mmHg 74%
08:00 +35°C° 0 mm 4 mps 754 mmHg 67%
09:00 +36°C° 0 mm 4 mps 754 mmHg 60%
10:00 +37°C° 0 mm 3 mps 754 mmHg 53%
11:00 +38°C° 0 mm 4 mps 754 mmHg 49%
12:00 +41°C° 0 mm 4 mps 753 mmHg 44%
13:00 +42°C° 0 mm 4 mps 753 mmHg 40%
14:00 +41°C° 0 mm 4 mps 752 mmHg 44%
15:00 +40°C° 0 mm 5 mps 751 mmHg 48%
16:00 +39°C° 0 mm 6 mps 750 mmHg 53%
17:00 +36°C° 0 mm 6 mps 751 mmHg 58%
18:00 +35°C° 0 mm 5 mps 751 mmHg 63%
19:00 +33°C° 0 mm 5 mps 752 mmHg 68%
20:00 +33°C° 0 mm 4 mps 752 mmHg 71%
21:00 +32°C° 0 mm 4 mps 753 mmHg 75%
22:00 +32°C° 0 mm 4 mps 753 mmHg 78%
23:00 +32°C° 0 mm 4 mps 753 mmHg 79%

15 July, Wednesday

Time Temperature Precipitation Wind Pressure Humidity
00:00 +32°C° 0 mm 4 mps 753 mmHg 80%
01:00 +32°C° 0 mm 4 mps 753 mmHg 81%
02:00 +32°C° 0 mm 4 mps 753 mmHg 80%
03:00 +32°C° 0 mm 4 mps 752 mmHg 79%
04:00 +32°C° 0 mm 5 mps 752 mmHg 79%
05:00 +32°C° 0 mm 4 mps 752 mmHg 77%
06:00 +32°C° 0 mm 4 mps 753 mmHg 76%
07:00 +33°C° 0 mm 4 mps 753 mmHg 74%
08:00 +35°C° 0 mm 5 mps 753 mmHg 64%
09:00 +37°C° 0 mm 5 mps 753 mmHg 55%
10:00 +39°C° 0 mm 5 mps 753 mmHg 45%
11:00 +40°C° 0 mm 5 mps 752 mmHg 43%
12:00 +41°C° 0 mm 6 mps 752 mmHg 42%
13:00 +41°C° 0 mm 6 mps 751 mmHg 40%
14:00 +40°C° 0 mm 6 mps 751 mmHg 43%
15:00 +40°C° 0 mm 6 mps 750 mmHg 46%
16:00 +39°C° 0 mm 6 mps 749 mmHg 49%
17:00 +36°C° 0 mm 5 mps 750 mmHg 56%
18:00 +35°C° 0 mm 5 mps 750 mmHg 63%
19:00 +33°C° 0 mm 5 mps 750 mmHg 70%
20:00 +33°C° 0 mm 5 mps 751 mmHg 71%
21:00 +33°C° 0 mm 5 mps 751 mmHg 72%
22:00 +33°C° 0 mm 5 mps 752 mmHg 74%
23:00 +33°C° 0 mm 6 mps 752 mmHg 74%
Show more